1283990434029,16.1984
1283990494029,16.1789
1283990554029,16.1820
1283990614029,16.2374
1283990674029,16.1553
1283990734029,16.2541
1283990794029,16.1931
1283990854029,16.2581
1283990914029,16.2388
1283990974029,16.2069
1283991034029,16.2361
1283991094029,16.2538
1283991154029,16.2875
1283991214029,16.2475
1283991274029,16.2455
1283991334029,16.2824
1283991394029,16.2747
1283991454029,16.2470
1283991514029,16.2678
1283991574029,16.2391
1283991634029,16.1853
1283991694029,16.2474
1283991754029,16.2391
1283991814029,16.1984
1283991874029,16.1956
1283991934029,16.2456
1283991994029,16.2233
1283992054029,16.2679
1283992114029,16.2448
1283992174029,16.2455
1283992234029,16.2668
1283992294029,16.2229
1283992354029,16.1974
1283992414029,16.2655
1283992474029,16.2490
1283992534029,16.2339
1283992594029,16.2097
1283992654029,16.1840
1283992714029,16.1934
1283992774029,16.2045
1283992834029,16.1710
1283992894029,16.2327
1283992954029,16.1690
1283993014029,16.2298
1283993074029,16.2350
1283993134029,16.1664
1283993194029,16.2462
1283993254029,16.2279
1283993314029,16.2237
1283993374029,16.2557
1283993434029,16.2447
1283993494029,16.2565
1283993554029,16.2359
1283993614029,16.2171
1283993674029,16.1915
1283993734029,16.1824
1283993794029,16.1922
1283993854029,16.2406
1283993914029,16.1958
1283993974029,16.1887
1283994034039,16.2042
1283994094039,16.1948
1283994154039,16.2074
1283994214039,16.1813
1283994274039,16.1696
1283994334039,16.2729
1283994394039,16.2702
1283994454039,16.2006
1283994514039,16.2558
1283994574039,16.2128
1283994634039,16.2162
1283994694039,16.2243
1283994754039,16.2343
1283994814039,16.1952
1283994874039,16.2072
1283994934039,16.2324
1283994994039,16.2648
1283995054039,16.2071
1283995114039,16.2299
1283995174039,16.2856
1283995234039,16.1909
1283995294039,16.2002
1283995354039,16.2077
1283995414039,16.1902
1283995474039,16.2162
1283995534039,16.2131
1283995594039,16.2589
1283995654039,16.2233
1283995714039,16.2427
1283995774039,16.2499
1283995834039,16.1546
1283995894039,16.1459
1283995954039,16.2169
1283996014039,16.2432
1283996074039,16.2069
1283996134039,16.2034
1283996194039,16.1655
1283996254039,16.1316
1283996314039,16.1854
1283996374039,16.1598
1283996434039,16.1455
1283996494039,16.1367
1283996554039,16.1714
1283996614039,16.1536
1283996674039,16.1284
1283996734039,16.1457
1283996794039,16.1308
1283996854039,16.1219
1283996914039,16.1003
1283996974039,16.1457
1283997034039,16.1295
1283997094039,16.1467
1283997154039,16.1236
1283997214039,16.1079
1283997274039,16.1306
1283997334039,16.0937
1283997394039,16.1444
1283997454039,16.1330
1283997514039,16.1180
1283997574039,16.1358
1283997634049,16.1140
1283997694049,16.1261
1283997754049,16.1278
1283997814049,16.1365
1283997874049,16.1104
1283997934049,16.1798
1283997994049,16.1636
1283998054049,16.1611
1283998114049,16.1479
1283998174049,16.1556
1283998234049,16.1332
1283998294049,16.1596
1283998354049,16.1650
1283998414049,16.1270
1283998474049,16.1280
1283998534049,16.1294
1283998594049,16.1262
1283998654049,16.0825
1283998714049,16.1248
1283998774049,16.1032
1283998834049,16.1643
1283998894049,16.1716
1283998954049,16.1495
1283999014049,16.1289
1283999074049,16.1163
1283999134049,16.1402
1283999194049,16.1412
1283999254049,16.1095
1283999314049,16.1766
1283999374049,16.1508
1283999434049,16.1297
1283999494049,16.0893
1283999554049,16.0949
1283999614049,16.0791
1283999674049,16.1261
1283999734049,16.1267
1283999794049,16.0940
1283999854049,16.1237
1283999914049,16.1254
1283999974049,16.1366
1284000034049,16.1283
1284000094049,16.1441
1284000154049,16.1822
1284000214049,16.1779
1284000274049,16.1999
1284000334049,16.1437
1284000394049,16.1685
1284000454049,16.1823
1284000514049,16.1546
1284000574049,16.0856
1284000634049,16.1520
1284000694049,16.1950
1284000754049,16.1719
1284000814049,16.1782
1284000874049,16.1786
1284000934049,16.0765
1284000994049,16.1840
1284001054049,16.1666
1284001114049,16.1549
1284001174049,16.1469
1284001234058,16.1991
1284001294058,16.1751
1284001354058,16.1552
1284001414058,16.2080
1284001474058,16.2172
1284001534058,16.2317
1284001594058,16.1506
1284001654058,16.1576
1284001714058,16.2137
1284001774058,16.2250
1284001834058,16.2058
1284001894058,16.2045
1284001954058,16.2000
1284002014058,16.1679
1284002074058,16.1831
1284002134058,16.1242
1284002194058,16.1406
1284002254058,16.1952
1284002314058,16.2040
1284002374058,16.2044
1284002434058,16.1940
1284002494058,16.1944
1284002554058,16.1838
1284002614058,16.1837
1284002674058,16.2419
1284002734058,16.2036
1284002794058,16.1918
1284002854058,16.2019
1284002914058,16.2564
1284002974058,16.2081
1284003034058,16.1994
1284003094058,16.1979
1284003154058,16.2353
1284003214058,16.1791
1284003274058,16.1527
1284003334058,16.1924
1284003394058,16.1965
1284003454058,16.2188
1284003514058,16.2451
1284003574058,16.1629
1284003634058,16.1955
1284003694058,16.1604
1284003754058,16.1521
1284003814058,16.1648
1284003874058,16.1898
1284003934058,16.1535
1284003994058,16.1746
1284004054058,16.1836
1284004114058,16.1968
1284004174058,16.1546
1284004234058,16.1928
1284004294058,16.1819
1284004354058,16.2058
1284004414058,16.2189
1284004474058,16.1667
1284004534058,16.1461
1284004594058,16.1947
1284004654058,16.1746
1284004714058,16.1771
1284004774058,16.1919
1284004834068,16.1770
1284004894068,16.1834
1284004954068,16.1855
1284005014068,16.2172
1284005074068,16.1783
1284005134068,16.1462
1284005194068,16.1838
1284005254068,16.1316
1284005314068,16.1227
1284005374068,16.1586
1284005434068,16.1903
1284005494068,16.1595
1284005554068,16.1613
1284005614068,16.0942
1284005674068,16.1737
1284005734068,16.1456
1284005794068,16.1134
1284005854068,16.1186
1284005914068,16.1149
1284005974068,16.1169
1284006034068,16.1420
1284006094068,16.1036
1284006154068,16.1404
1284006214068,16.1771
1284006274068,16.1504
1284006334068,16.1567
1284006394068,16.0964
1284006454068,16.1207
1284006514068,16.1243
1284006574068,16.1258
1284006634068,16.1213
1284006694068,16.1126
1284006754068,16.0896
1284006814068,16.1094
1284006874068,16.1337
1284006934068,16.1476
1284006994068,16.1314
1284007054068,16.1132
1284007114068,16.1723
1284007174068,16.1110
1284007234068,16.0982
1284007294068,16.0897
1284007354068,16.0845
1284007414068,16.1146
1284007474068,16.1245
1284007534068,16.1275
1284007594068,16.1078
1284007654068,16.1431
1284007714068,16.1075
1284007774068,16.1166
1284007834068,16.1011
1284007894068,16.1330
1284007954068,16.1113
1284008014068,16.1702
1284008074068,16.1158
1284008134068,16.1575
1284008194068,16.1662
1284008254068,16.1665
1284008314068,16.1814
1284008374068,16.1718
1284008434077,16.1149
1284008494077,16.1538
1284008554077,16.1420
1284008614077,16.1117
1284008674077,16.1536
1284008734077,16.1487
1284008794077,16.1348
1284008854077,16.1532
1284008914077,16.1101
1284008974077,16.1595
1284009034077,16.1652
1284009094077,16.2123
1284009154077,16.1764
1284009214077,16.1723
1284009274077,16.1574
1284009334077,16.1167
1284009394077,16.0647
1284009454077,16.1583
1284009514077,16.1570
1284009574077,16.1728
1284009634077,16.1269
1284009694077,16.1165
1284009754077,16.1892
1284009814077,16.1625
1284009874077,16.1837
1284009934077,16.1637
1284009994077,16.1498
1284010054077,16.1457
1284010114077,16.1373
1284010174077,16.1324
1284010234077,16.1295
1284010294077,16.1882
1284010354077,16.1061
1284010414077,16.1025
1284010474077,16.0973
1284010534077,16.1487
1284010594077,16.1444
1284010654077,16.1126
1284010714077,16.1575
1284010774077,16.1387
1284010834077,16.1484
1284010894077,16.1688
1284010954077,16.1703
1284011014077,16.1427
1284011074077,16.1328
1284011134077,16.1531
1284011194077,16.1865
1284011254077,16.1775
1284011314077,16.1252
1284011374077,16.1715
1284011434077,16.2299
1284011494077,16.1506
1284011554077,16.2056
1284011614077,16.2203
1284011674077,16.1751
1284011734077,16.2111
1284011794077,16.2043
1284011854077,16.2416
1284011914077,16.2442
1284011974077,16.1737
1284012034086,16.1477
1284012094086,16.1301
1284012154086,16.1816
1284012214086,16.1581
1284012274086,16.1656
1284012334086,16.1927
1284012394086,16.1754
1284012454086,16.1228
1284012514086,16.1668
1284012574086,16.1923
1284012634086,16.1580
1284012694086,16.2044
1284012754086,16.1762
1284012814086,16.1962
1284012874086,16.1766
1284012934086,16.1605
1284012994086,16.1994
1284013054086,16.1514
1284013114086,16.1874
1284013174086,16.1358
1284013234086,16.1156
1284013294086,16.1428
1284013354086,16.2041
1284013414086,16.1724
1284013474086,16.1492
1284013534086,16.1610
1284013594086,16.1985
1284013654086,16.1782
1284013714086,16.1630
1284013774086,16.1383
1284013834086,16.2000
1284013894086,16.2034
1284013954086,16.1868
1284014014086,16.2457
1284014074086,16.1997
1284014134086,16.1443
1284014194086,16.2291
1284014254086,16.1406
1284014314086,16.1299
1284014374086,16.1406
1284014434086,16.1948
1284014494086,16.2287
1284014554086,16.1935
1284014614086,16.2003
1284014674086,16.2181
1284014734086,16.1928
1284014794086,16.2179
1284014854086,16.2396
1284014914086,16.1559
1284014974086,16.1550
1284015034086,16.1717
1284015094086,16.1745
1284015154086,16.1260
1284015214086,16.1033
1284015274086,16.1717
1284015334086,16.1347
1284015394086,16.1522
1284015454086,16.1481
1284015514086,16.0967
1284015574086,16.1276
1284015634096,16.0963
1284015694096,16.1238
1284015754096,16.1216
1284015814096,16.1110
1284015874096,16.1634
1284015934096,16.0887
1284015994096,16.1493
1284016054096,16.1153
1284016114096,16.1203
1284016174096,16.1161
1284016234096,16.1456
1284016294096,16.1046
1284016354096,16.1017
1284016414096,16.0817
1284016474096,16.1032
1284016534096,16.0993
1284016594096,16.1254
1284016654096,16.1680
1284016714096,16.0988
1284016774096,16.0782
1284016834096,16.0553
1284016894096,16.0976
1284016954096,16.0743
1284017014096,16.1134
1284017074096,16.0334
1284017134096,16.0827
1284017194096,16.0101
1284017254096,15.9712
1284017314096,16.0407
1284017374096,16.0201
1284017434096,16.0753
1284017494096,16.0964
1284017554096,16.1007
1284017614096,16.1264
1284017674096,16.1203
1284017734096,16.1043
1284017794096,16.0689
1284017854096,16.1075
1284017914096,16.0853
1284017974096,16.0948
1284018034096,16.0721
1284018094096,16.0951
1284018154096,16.0888
1284018214096,16.0560
1284018274096,16.0664
1284018334096,16.0992
1284018394096,16.1344
1284018454096,16.1096
1284018514096,16.0840
1284018574096,16.0894
1284018634096,16.0978
1284018694096,16.1404
1284018754096,16.0953
1284018814096,16.0660
1284018874096,16.0863
1284018934096,16.1244
1284018994096,16.1162
1284019054096,16.0885
1284019114096,16.0942
1284019174096,16.1291
1284019234106,16.0896
1284019294106,16.0719
1284019354105,16.0704
1284019414105,16.0734
1284019474105,16.0963
1284019534105,16.0741
1284019594105,16.1024
1284019654105,16.0681
1284019714105,16.0684
1284019774105,16.0767
1284019834105,16.1128
1284019894106,16.0930
1284019954106,16.0924
1284020014105,16.0992
1284020074105,16.0456
1284020134105,16.0866
1284020194106,16.0449
1284020254106,16.1021
1284020314106,16.1009
1284020374106,16.0689
1284020434106,16.1260
1284020494106,16.0882
1284020554106,16.1391
1284020614106,16.1217
1284020674105,16.1286
1284020734105,16.0920
1284020794105,16.1168
1284020854105,16.1259
1284020914105,16.1080
1284020974105,16.1393
1284021034105,16.1090
1284021094105,16.0857
1284021154105,16.0941
1284021214106,16.0989
1284021274106,16.1345
1284021334105,16.1084
1284021394105,16.0815
1284021454105,16.0899
1284021514105,16.1186
1284021574106,16.1113
1284021634106,16.1076
1284021694106,16.0821
1284021754106,16.0496
1284021814106,16.1359
1284021874106,16.1296
1284021934106,16.1145
1284021994106,16.0812
1284022054105,16.0865
1284022114105,16.1457
1284022174105,16.1018
1284022234105,16.0967
1284022294105,16.0631
1284022354105,16.0956
1284022414105,16.1152
1284022474105,16.1231
1284022534105,16.0851
1284022594106,16.1854
1284022654106,16.1237
1284022714105,16.0949
1284022774105,16.0738
1284022834115,16.0792
1284022894115,16.0768
1284022954115,16.0402
1284023014115,16.1080
1284023074115,16.0776
1284023134115,16.0865
1284023194115,16.0956
1284023254115,16.0265
1284023314115,16.0996
1284023374115,16.0539
1284023434115,16.1014
1284023494115,16.0644
1284023554115,16.0568
1284023614115,16.0849
1284023674115,16.0576
1284023734115,16.0689
1284023794115,15.9971
1284023854115,16.0593
1284023914115,16.0470
1284023974115,16.0189
1284024034115,16.0524
1284024094115,16.0878
1284024154115,16.0815
1284024214115,16.0132
1284024274115,16.0580
1284024334115,16.0777
1284024394115,16.0685
1284024454115,16.0572
1284024514115,16.0639
1284024574115,16.0933
1284024634115,16.0807
1284024694115,16.0889
1284024754115,16.0759
1284024814115,16.1124
1284024874115,16.0801
1284024934115,16.0720
1284024994115,16.1138
1284025054115,16.0914
1284025114115,16.1196
1284025174115,16.0962
1284025234115,16.1411
1284025294115,16.1196
1284025354115,16.1315
1284025414115,16.1104
1284025474115,16.0700
1284025534115,16.1061
1284025594115,16.0303
1284025654115,16.0276
1284025714115,16.1319
1284025774115,16.0573
1284025834115,16.0810
1284025894115,16.0570
1284025954115,16.0386
1284026014115,16.0291
1284026074115,16.0399
1284026134115,16.1165
1284026194115,16.1003
1284026254115,16.0567
1284026314115,16.0687
1284026374115,16.0512
1284026434125,16.0377
1284026494125,16.1056
1284026554125,16.1172
1284026614125,16.1012
1284026674125,16.0865
1284026734125,16.0582
1284026794125,16.0501
1284026854125,16.0569
1284026914125,16.0767
1284026974125,16.0570
1284027034125,16.0448
1284027094125,16.0441
1284027154125,16.0836
1284027214125,16.0949
1284027274125,16.0739
1284027334125,16.1142
1284027394125,16.0188
1284027454125,16.1516
1284027514125,16.0707
1284027574125,16.0621
1284027634125,16.0985
1284027694125,16.0740
1284027754125,16.0922
1284027814125,16.0695
1284027874125,16.0999
1284027934125,16.0837
1284027994125,16.0773
1284028054125,16.0343
1284028114125,15.9725
1284028174125,16.0365
1284028234125,16.0049
1284028294125,16.0226
1284028354125,16.0244
1284028414125,16.0459
1284028474125,16.0326
1284028534125,16.0663
1284028594125,16.0568
1284028654125,16.0725
1284028714125,16.0362
1284028774125,15.9899
1284028834125,16.0147
1284028894125,16.0618
1284028954125,16.0199
1284029014125,15.9990
1284029074125,16.0434
1284029134125,16.0463
1284029194125,16.0313
1284029254125,16.0698
1284029314125,16.0410
1284029374125,16.0237
1284029434125,16.0718
1284029494125,16.0149
1284029554125,16.0650
1284029614125,16.0482
1284029674125,16.0444
1284029734125,16.0635
1284029794125,16.0125
1284029854125,16.0463
1284029914125,16.0698
1284029974125,16.0306
1284030034134,16.0034
1284030094134,16.0260
1284030154134,16.0421
1284030214134,16.0270
1284030274134,16.0328
1284030334134,16.0540
1284030394134,15.9903
1284030454134,16.0039
1284030514134,16.0048
1284030574134,15.9733
1284030634135,16.0529
1284030694135,16.0376
1284030754135,16.0083
1284030814135,16.0278
1284030874135,16.0433
1284030934134,16.0051
1284030994134,16.0069
1284031054134,16.0292
1284031114134,15.9742
1284031174134,16.0112
1284031234134,16.0405
1284031294134,16.0294
1284031354134,16.0538
1284031414134,16.0687
1284031474134,16.0442
1284031534134,16.1073
1284031594134,16.0277
1284031654134,16.0035
1284031714134,15.9642
1284031774134,16.0175
1284031834134,16.0067
1284031894134,16.0575
1284031954135,16.0514
1284032014135,16.0240
1284032074135,16.0614
1284032134135,16.0655
1284032194135,15.9967
1284032254135,16.0652
1284032314134,16.0430
1284032374134,16.0459
1284032434134,16.0483
1284032494134,16.0428
1284032554134,16.0807
1284032614134,16.0591
1284032674134,16.0677
1284032734134,16.0232
1284032794134,16.0271
1284032854134,16.0683
1284032914134,16.0441
1284032974134,16.0377
1284033034134,16.0118
1284033094134,16.0215
1284033154134,16.0220
1284033214134,16.1013
1284033274134,16.0383
1284033334135,16.0470
1284033394135,16.0139
1284033454135,16.0274
1284033514135,16.0218
1284033574135,16.0270
1284033634144,16.0067
1284033694144,16.0189
1284033754144,15.9767
1284033814144,16.0239
1284033874144,16.0534
1284033934144,15.9900
1284033994144,15.9916
1284034054144,16.0059
1284034114144,16.0132
1284034174144,16.0200
1284034234144,16.0142
1284034294144,16.0025
1284034354144,15.9921
1284034414144,15.9696
1284034474144,15.9926
1284034534144,16.0011
1284034594144,16.0011
1284034654144,15.9905
1284034714144,15.9900
1284034774144,16.0047
1284034834144,15.9953
1284034894144,15.9913
1284034954144,15.9735
1284035014144,15.9809
1284035074144,16.0323
1284035134144,16.0061
1284035194144,16.0000
1284035254144,16.0131
1284035314144,16.0203
1284035374144,15.9547
1284035434144,15.9639
1284035494144,15.9362
1284035554144,15.9770
1284035614144,15.9838
1284035674144,16.0180
1284035734144,16.0427
1284035794144,15.9969
1284035854144,16.0005
1284035914144,16.0192
1284035974144,15.9688
1284036034144,15.9684
1284036094144,15.9262
1284036154144,15.9507
1284036214144,16.0343
1284036274144,15.9735
1284036334144,16.0108
1284036394144,15.9285
1284036454144,15.9595
1284036514144,15.9802
1284036574144,16.0059
1284036634144,15.9875
1284036694144,15.9972
1284036754144,16.0190
1284036814144,15.9066
1284036874144,15.9986
1284036934144,16.0046
1284036994144,16.0134
1284037054144,15.9599
1284037114144,15.9511
1284037174144,15.9971
1284037234154,16.0200
1284037294154,15.9975
1284037354154,15.9757
1284037414154,15.9836
1284037474154,16.0141
1284037534154,16.0398
1284037594154,15.9897
1284037654154,15.9943
1284037714154,15.9818
1284037774154,16.0244
1284037834154,15.9641
1284037894154,16.0100
1284037954154,16.0301
1284038014154,16.0093
1284038074154,15.9790
1284038134154,16.0291
1284038194154,15.9908
1284038254154,15.9824
1284038314154,16.0003
1284038374154,15.9790
1284038434154,16.0271
1284038494154,16.0202
1284038554154,16.0272
1284038614154,16.0172
1284038674154,16.0511
1284038734154,16.0833
1284038794154,16.0399
1284038854154,16.0704
1284038914154,16.0436
1284038974154,16.0940
1284039034154,16.0571
1284039094154,16.0267
1284039154154,16.0376
1284039214154,16.0262
1284039274154,16.0256
1284039334154,16.0054
1284039394154,16.0458
1284039454154,16.0082
1284039514154,16.0418
1284039574154,15.9648
1284039634154,16.0183
1284039694154,15.9705
1284039754154,16.0165
1284039814154,15.9795
1284039874154,16.0062
1284039934154,15.9905
1284039994154,16.0377
1284040054154,16.0209
1284040114154,16.0854
1284040174154,15.9925
1284040234154,16.0503
1284040294154,16.0059
1284040354154,16.0385
1284040414154,15.9358
1284040474154,15.9209
1284040534154,16.0288
1284040594154,16.0226
1284040654154,16.0136
1284040714154,16.0306
1284040774154,15.9673
1284040834165,16.0464
1284040894165,15.9500
1284040954165,16.0248
1284041014165,16.0464
1284041074165,15.9859
1284041134165,16.0533
1284041194165,16.0033
1284041254165,16.0712
1284041314165,16.0534
1284041374165,16.0415
1284041434165,16.0260
1284041494165,16.0458
1284041554165,16.0524
1284041614165,16.0407
1284041674165,16.0944
1284041734165,16.0379
1284041794165,16.0404
1284041854165,16.0197
1284041914165,16.0457
1284041974165,16.0007
1284042034165,16.0545
1284042094165,15.9899
1284042154165,16.0149
1284042214165,16.0071
1284042274165,15.9657
1284042334165,15.9946
1284042394165,16.0069
1284042454165,16.0338
1284042514165,15.9857
1284042574165,16.0132
1284042634165,15.9994
1284042694165,15.9624
1284042754165,15.9719
1284042814165,16.0355
1284042874165,16.0412
1284042934165,15.9990
1284042994165,15.9989
1284043054165,16.0159
1284043114165,15.9603
1284043174165,16.0164
1284043234165,15.9892
1284043294165,15.9626
1284043354165,16.0169
1284043414165,15.9968
1284043474165,16.0057
1284043534165,15.9869
1284043594165,15.9648
1284043654165,15.9742
1284043714165,15.9838
1284043774165,15.9724
1284043834165,16.0001
1284043894165,16.0066
1284043954165,15.9761
1284044014165,15.9811
1284044074165,15.9692
1284044134165,15.9927
1284044194165,15.9430
1284044254165,15.9558
1284044314165,15.9668
1284044374165,15.9383
1284044434175,15.9952
1284044494175,15.9371
1284044554175,16.0113
1284044614175,16.0090
1284044674175,15.9510
1284044734175,15.9770
1284044794175,16.0104
1284044854175,15.9524
1284044914175,15.9705
1284044974175,15.9516
1284045034175,15.9759
1284045094175,16.0162
1284045154175,15.9722
1284045214175,15.9456
1284045274175,15.9325
1284045334175,15.9921
1284045394175,15.9833
1284045454175,15.9544
1284045514175,15.9675
1284045574175,15.9699
1284045634175,15.9725
1284045694175,15.9398
1284045754175,16.0312
1284045814175,15.9822
1284045874175,16.0143
1284045934175,16.0101
1284045994175,15.9852
1284046054175,15.9789
1284046114175,16.0130
1284046174175,16.0455
1284046234175,15.8976
1284046294175,15.9903
1284046354175,16.0052
1284046414175,15.9473
1284046474175,15.9994
1284046534175,16.0242
1284046594175,15.9939
1284046654175,15.9764
1284046714175,16.0233
1284046774175,15.9698
1284046834175,16.0013
1284046894175,15.9898
1284046954175,15.9921
1284047014175,15.9744
1284047074175,15.9312
1284047134175,15.9841
1284047194175,16.0111
1284047254175,16.0200
1284047314175,16.0371
1284047374175,16.0542
1284047434175,16.0037
1284047494175,15.9850
1284047554175,15.9135
1284047614175,15.9998
1284047674175,16.0034
1284047734175,16.0260
1284047794175,16.0116
1284047854175,16.0046
1284047914175,15.9888
1284047974175,15.9515
1284048034186,16.0384
1284048094186,16.0116
1284048154186,16.0239
1284048214186,15.9892
1284048274186,15.9742
1284048334186,15.9635
1284048394186,15.9829
1284048454186,16.0349
1284048514186,15.9955
1284048574186,15.9999
1284048634186,15.9622
1284048694186,15.9878
1284048754186,16.0153
1284048814186,16.0432
1284048874186,15.9770
1284048934186,16.0737
1284048994186,15.9862
1284049054186,16.0133
1284049114186,15.9708
1284049174186,16.0235
1284049234186,15.9809
1284049294186,15.9985
1284049354186,16.0196
1284049414186,15.9617
1284049474186,15.9953
1284049534186,15.9706
1284049594186,16.0495
1284049654186,16.0360
1284049714186,16.0726
1284049774186,16.0400
1284049834186,16.0224
1284049894186,16.0207
1284049954186,15.9772
1284050014186,15.9941
1284050074186,16.0077
1284050134186,15.9894
1284050194186,15.9611
1284050254186,15.9313
1284050314186,15.9258
1284050374186,15.9051
1284050434186,15.9344
1284050494186,15.9896
1284050554186,16.0221
1284050614186,16.0001
1284050674186,15.9367
1284050734186,15.9776
1284050794186,16.0019
1284050854186,16.0051
1284050914186,15.9880
1284050974186,15.9593
1284051034186,16.0100
1284051094186,16.0424
1284051154186,16.0011
1284051214186,15.9941
1284051274186,15.9978
1284051334186,16.0245
1284051394186,15.9920
1284051454186,15.9925
1284051514186,16.0166
1284051574186,16.0222
1284051634197,16.0070
1284051694197,16.0631
1284051754197,16.0624
1284051814197,16.0275
1284051874197,16.0114
1284051934197,16.0037
1284051994197,16.0193
1284052054197,16.0100
1284052114197,16.0071
1284052174197,16.0351
1284052234197,15.9933
1284052294197,16.0034
1284052354197,16.0124
1284052414197,16.0854
1284052474197,16.0566
1284052534197,16.0084
1284052594197,16.0227
1284052654197,16.0046
1284052714197,15.9879
1284052774197,16.0274
1284052834197,16.0157
1284052894197,15.9868
1284052954197,16.0709
1284053014197,16.0435
1284053074197,16.0199
1284053134197,16.0887
1284053194197,16.1023
1284053254197,16.0647
1284053314197,16.0266
1284053374197,16.0475
1284053434197,16.0767
1284053494197,16.0294
1284053554197,16.0318
1284053614197,16.1144
1284053674197,16.0786
1284053734197,16.1271
1284053794197,16.0099
1284053854197,16.0254
1284053914197,16.0608
1284053974197,16.0670
1284054034197,16.0524
1284054094197,16.0055
1284054154197,16.0295
1284054214197,16.0147
1284054274197,15.9966
1284054334197,16.0031
1284054394197,16.0231
1284054454197,16.0301
1284054514197,16.0300
1284054574197,16.0534
1284054634197,16.0271
1284054694197,16.0454
1284054754197,16.0279
1284054814197,16.0124
1284054874197,16.0083
1284054934197,16.0056
1284054994197,16.0008
1284055054197,15.9987
1284055114197,16.0230
1284055174197,16.0060
1284055234208,15.9626
1284055294208,16.0491
1284055354208,16.0148
1284055414208,16.0279
1284055474208,16.0719
1284055534208,16.0451
1284055594208,16.0405
1284055654208,16.0373
1284055714208,16.0232
1284055774208,16.0282